This is the latest recevied weather packets stored in our database for station/object N5XJB. If no packets are shown the sender has not sent any weather packets the latest 10 day(s).
| Time | Temp. | Humidity | Pressure | Rain* | Wind** | Luminosity | Snow |
|---|---|---|---|---|---|---|---|
| 1778013982 | 30° C | 69% | 1008.7 hPa | 0 mm | - | 509 W/m² | - |
| 1778013680 | 30° C | 70% | 1008.7 hPa | 0 mm | - | 560 W/m² | - |
| 1778013376 | 30° C | 70% | 1008.7 hPa | 0 mm | - | 401 W/m² | - |
| 1778013074 | 30° C | 70% | 1008.7 hPa | 0 mm | - | 626 W/m² | - |
| 1778012769 | 29.44° C | 73% | 1009 hPa | 0 mm | - | 298 W/m² | - |
| 1778012465 | 30° C | 71% | 1009.3 hPa | 0 mm | - | 446 W/m² | - |
| 1778012162 | 29.44° C | 72% | 1009 hPa | 0 mm | - | 456 W/m² | - |
| 1778011860 | 30° C | 72% | 1009.3 hPa | 0 mm | - | 383 W/m² | - |
| 1778011557 | 29.44° C | 72% | 1009.3 hPa | 0 mm | - | 384 W/m² | - |
| 1778011254 | 28.89° C | 73% | 1009.3 hPa | 0 mm | - | 367 W/m² | - |
| 1778010950 | 28.89° C | 73% | 1009.7 hPa | 0 mm | - | 364 W/m² | - |
| 1778010648 | 28.89° C | 74% | 1009.7 hPa | 0 mm | - | 426 W/m² | - |
| 1778010345 | 28.89° C | 74% | 1009.7 hPa | 0 mm | - | 347 W/m² | - |
| 1778010040 | 29.44° C | 73% | 1009.7 hPa | 0 mm | - | 313 W/m² | - |
| 1778009737 | 28.89° C | 74% | 1009.7 hPa | 0 mm | - | 369 W/m² | - |
| 1778009435 | 29.44° C | 73% | 1009.7 hPa | 0 mm | - | 392 W/m² | - |
| 1778009133 | 28.89° C | 74% | 1009.7 hPa | 0 mm | - | 463 W/m² | - |
| 1778008831 | 28.89° C | 75% | 1009.7 hPa | 0 mm | - | 512 W/m² | - |
| 1778008529 | 28.33° C | 76% | 1009.7 hPa | 0 mm | - | 456 W/m² | - |
| 1778008226 | 28.89° C | 75% | 1009.7 hPa | 0 mm | - | 295 W/m² | - |
| 1778007921 | 28.89° C | 76% | 1009.7 hPa | 0 mm | - | 382 W/m² | - |
| 1778007617 | 28.33° C | 76% | 1010 hPa | 0 mm | - | 534 W/m² | - |
| 1778007314 | 28.33° C | 77% | 1010 hPa | 0 mm | - | 306 W/m² | - |
| 1778007010 | 28.33° C | 76% | 1010 hPa | 0 mm | - | 306 W/m² | - |
| 1778006707 | 28.89° C | 75% | 1010 hPa | 0 mm | - | 228 W/m² | - |
* Rain latest hour (hover to see other rain measurements)
** Current wind speed in m/s (hover to see current wind gust speed)